Home > Weather > Gatineau > Past weeks

Flag for Canada Past Weather in Gatineau, Quebec, Canada — Yesterday and Last 2 Weeks

Now
61 °F

Clear.


Feels Like: 61 °F
Forecast: 60 / 85 °F
Wind: 6 mph from Northeast

Location: Ottawa Int'L. Ont.

Current Time: May 27, 2016 at 12:46:14 AM

Latest Report: May 27, 2016 at 12:00 AM


Visibility: 15 mi

Pressure: 29.97 "Hg

Humidity: 63%

Dew Point: 48 °F

Location of GatineauLocation

Past Weather in Gatineau — Graph

°F

Gatineau Temperature Yesterday

Maximum temperature yesterday: 77 °F (at 2:00 PM)
Minimum temperature yesterday: 54 °F (at 5:00 AM)
Average temperature yesterday: 66 °F

High & Low Weather Summary for the Past Weeks

 TemperatureHumidityPressure
High84 °F (May 24, 3:00 PM)94% (May 13, 10:00 AM)30.26 "Hg (May 13, 10:00 AM)
Low34 °F (May 17, 5:00 AM)15% (May 24, 4:00 PM)29.46 "Hg (May 14, 7:00 PM)
Average60 °F53%29.96 "Hg
* Reported May 11 11:00 PM — May 26 11:00 PM, Gatineau, Weather by CustomWeather, © 2016

Note: Actual official high and low records may vary slightly from our data, if they occured in-between our weather recording intervals... More about our weather records

Advertising

Gatineau Weather History for the Previous 24 Hours

Scroll right to see more
 ConditionsComfort  
Time TempWeatherWind HumidityBarometerVisibility
11:00 PM
Thu, May 26
63 °FPassing clouds.7 mph64%29.97 "Hg15 mi
10:00 PM66 °FOvercast.8 mph56%29.99 "Hg15 mi
9:00 PM68 °FLight rain. Mostly cloudy.6 mph53%29.98 "Hg15 mi
8:53 PM68 °FLight rain. Mostly cloudy.5 mph49%29.98 "Hg15 mi
8:00 PM70 °FMostly cloudy.5 mph50%29.99 "Hg15 mi
7:00 PM73 °FLight rain. Cloudy.8 mph44%30.00 "Hg15 mi
6:00 PM73 °FLight rain. Overcast.9 mph44%30.00 "Hg15 mi
5:00 PM75 °FMostly cloudy.8 mph41%30.02 "Hg15 mi
4:00 PM77 °FPartly sunny.10 mph39%30.03 "Hg15 mi
3:00 PM77 °FPartly sunny.9 mph39%30.04 "Hg15 mi
2:00 PM77 °FPartly sunny.10 mph39%30.05 "Hg15 mi
1:00 PM75 °FPartly sunny.10 mph41%30.07 "Hg15 mi
12:00 PM73 °FBroken clouds.12 mph44%30.10 "Hg15 mi
11:00 AM72 °FPartly sunny.14 mph47%30.11 "Hg15 mi
10:00 AM68 °FScattered clouds.12 mph53%30.11 "Hg15 mi
9:00 AM64 °FScattered clouds.13 mph60%30.14 "Hg15 mi
8:00 AM61 °FPassing clouds.12 mph68%30.14 "Hg15 mi
7:00 AM57 °FPassing clouds.10 mph77%30.14 "Hg15 mi
6:00 AM54 °FPartly cloudy.9 mph88%30.12 "Hg15 mi
5:00 AM54 °FPassing clouds.8 mph88%30.11 "Hg15 mi
4:00 AM55 °FPartly cloudy.6 mph82%30.10 "Hg15 mi
3:00 AM55 °FPartly cloudy.5 mph82%30.09 "Hg15 mi
2:00 AM57 °FPassing clouds.5 mph77%30.09 "Hg15 mi
1:00 AM59 °FPassing clouds.5 mph72%30.08 "Hg15 mi
12:00 AM59 °FClear.6 mph72%30.09 "Hg15 mi
Weather by CustomWeather, © 2016

See weather overviewHow to use our weather pages